Regional Weather Roundup
Issued by NWS Midland/Odessa, TX

Skip options and go directly to product.
Home | Oldest Version | Previous Version | Current Version | All | Graphics & Text | Save Text | Print | Product List | Glossary On

Skip product version selection by date and time.   
886
ASUS44 KMAF 040701
RWRMAF
MIDLAND AREA WEATHER ROUNDUP
NATIONAL WEATHER SERVICE MIDLAND TX
200 AM CDT SAT JUL 04 2015

...IN SOUTHWEST TEXAS AND SOUTHEAST NEW MEXICO...

CITY           SKY/WX    TMP DP  RH WIND       PRES   REMARKS
ALPINE         CLOUDY    71  62  73 SE10      30.15S
ANDREWS        FAIR      73  62  69 S5        30.07R
ARTESIA        PTCLDY    72  63  73 S5        30.06F
BIG SPRING     PTCLDY    79  64  60 SE7       30.05S
CARLSBAD       MOCLDY    74  65  73 CALM      30.03S
DRYDEN           N/A     78  67  68 E7G17     29.96F
FORT STOCKTON  MOCLDY    74  64  71 SE9       30.01F
GUAD PASS      MOCLDY    69  59  70 NE24      30.16F
HOBBS          PTCLDY    70  59  68 CALM      30.09S
MARFA          CLOUDY   N/A N/A N/A CALM      30.14S
MIDLAND AIRPK  PTCLDY    77  63  62 S9        30.04S
MIDLAND INTL   PTCLDY    74  64  71 S6        30.04S
ODESSA         CLEAR     76  63  64 S8        30.05S
PECOS          CLOUDY    79  63  57 E10       30.00S
PRESIDIO       FAIR      81  63  54 MISG      29.97R
SEMINOLE       PTCLDY    71  60  67 CALM      30.08S
SNYDER         CLOUDY    74  63  69 S8        30.03R
WINK           PTCLDY    77  62  59 SE8       30.01S
$$
...OTHER STATIONS IN TEXAS...

CITY           SKY/WX    TMP DP  RH WIND       PRES   REMARKS
ABILENE        PTCLDY    78  64  61 S13       29.99S
AMARILLO       CLOUDY    65  61  87 S9        30.09R
AUSTIN         PTCLDY    73  73 100 S6        29.97F
BROWNSVILLE    PTCLDY    81  75  82 S14       29.96R
CORPUS CHRISTI PTCLDY    80  77  90 S10       29.95F
DALLAS FTW     PTCLDY    82  71  69 S16       29.93S
DEL RIO        CLEAR     80  72  76 E8        29.93S
EL PASO        MOCLDY    80  59  48 E5        30.02S
HOUSTON INT    PTCLDY    80  76  87 CALM      29.99S
LUBBOCK        CLOUDY    74  62  66 S3        30.07R
SAN ANGELO     MOCLDY    76  66  71 S8        30.00S
SAN ANTONIO    PTCLDY    78  73  84 S9        29.99F
WACO           PTCLDY    78  72  81 S12       29.96S
WICHITA FALLS  NOT AVBL
$$
...OTHER LOCATIONS IN NEW MEXICO...

CITY           SKY/WX    TMP DP  RH WIND       PRES   REMARKS
ALAMAGORDO     PTCLDY    70  64  83 N6        30.07R
ALBUQUERQUE    CLOUDY    75  53  46 CALM      30.14S
CANNON AFB     TSTM      62  59  90 E16G22    30.17S FOG
CLOVIS         CLOUDY    61  55  82 E18G28      N/A
HOLLOMAN AFB   PTCLDY    70  64  81 SW2       30.04S
ROSWELL        CLEAR     70  62  76 SE3       30.06S
RUIDOSO        MOCLDY    59  55  88 S6        30.29R
SANTA FE       CLOUDY    68  53  58 SE13      30.22R
TRUTH OR CONSE CLOUDY    75  58  55 SW9       30.11R
TUCUMCARI      MOCLDY    67  57  70 SE13      30.12F
$$

USA.gov is the U.S. government's official web portal to all federal, state and local government web resources and services.